Location: Boiro
(42.6475°N, 8.8834°W)
Time: 03:28:39
(UTC+01:00)

Vanguard 3 - Pass Details

Date: 07 December 2021
Orbit: 508 x 3260 km, 33.3° (Epoch: 19 January)

Event Time Altitude Azimuth Distance (km) Brightness Sun altitude
Exits shadow 01:52:31 15° 102° (ESE) 5,732 11.3 -69.3°
Drops below altitude 10° 01:56:15 10° 93° (E) 6,184 11.6 -69.1°
Sets 02:02:31 0° 81° (E) 7,076 12.1 -68.6°
